RH
3 3 3 4 4 4 4 4 4 4 3 4 4 4 4 4 5 7 9 11 14 15 15 15 13 11 10 8 6 5 5 7 9 11 13 16 18 20 19 19 20 21 22 25 27 29 30 32 36 38 36 36 39 39 38 35 28 22 18 18 18 19 20 22 22 23 24 25 26 27 28 29 30 31 32 32 34 35 37 38 39 41 45 48 51
5 4 4 3 4 4 4 4 4 4 3 3 4 4 4 4 5 7 9 11 13 14 13 12 11 9 7 5 5 7 10 14 18 21 24 25 25 24 24 23 23 23 23 25 27 27 29 33 35 34 31 32 35 36 38 38 32 24 19 18 19 19 20 23 24 24 25 27 29 29 30 33 34 36 37 38 39 41 43 43 42 45 49 53 55
7 5 4 4 4 4 4 4 4 3 3 3 4 4 4 4 4 6 8 10 11 11 11 10 8 6 5 5 8 13 20 27 30 32 33 34 33 32 30 28 26 25 25 27 27 28 32 34 32 29 27 28 29 30 33 34 30 24 20 18 19 19 20 22 24 26 28 30 34 36 38 41 42 42 43 44 44 46 49 47 43 44 47 49 53
9 7 5 5 5 4 4 3 3 3 3 3 3 4 3 3 4 5 6 8 9 8 7 7 6 5 5 9 15 24 32 38 39 39 39 39 39 38 36 33 30 29 28 28 28 31 34 30 26 25 25 25 25 25 27 27 24 21 18 17 17 19 21 24 28 32 35 39 42 43 44 46 48 48 45 44 43 42 45 43 40 42 43 42 46
10 9 7 6 6 5 5 4 3 3 3 3 3 3 3 3 3 4 5 6 6 6 6 5 4 5 10 16 25 34 40 44 43 42 42 41 39 38 38 37 35 32 30 30 33 35 32 25 22 23 24 23 22 23 24 23 20 18 17 19 23 28 33 38 43 46 47 49 51 49 43 39 42 46 41 37 38 37 37 36 38 43 45 44 47
9 10 10 9 9 8 6 4 4 3 3 3 3 3 3 2 2 3 4 5 5 5 5 4 4 9 16 24 33 40 44 46 45 44 42 38 35 34 35 38 38 37 35 35 36 33 26 22 21 22 23 21 19 20 22 22 21 23 26 31 38 44 48 50 50 48 44 43 45 47 43 36 35 39 35 31 34 39 39 38 43 51 53 51 53
10 11 11 11 11 10 7 6 5 4 3 3 3 3 2 2 2 3 4 5 5 5 4 4 7 15 23 30 36 42 45 47 47 44 40 35 31 29 29 32 36 38 38 36 33 27 21 19 21 21 21 20 21 23 26 28 32 35 39 45 49 51 51 47 43 39 35 33 34 35 37 37 37 40 41 39 41 44 43 41 47 56 55 53 57
9 10 12 12 11 10 8 7 7 5 3 2 3 3 2 2 2 3 5 5 5 4 5 8 14 22 29 32 36 41 46 48 46 42 38 33 29 24 22 24 28 29 28 26 24 20 18 18 19 20 22 25 30 35 39 43 47 50 52 53 52 51 48 45 45 44 41 40 39 36 36 41 46 49 51 51 50 51 50 50 55 62 62 61 64
7 8 10 9 9 8 7 7 7 5 3 2 2 3 2 3 3 3 5 5 4 5 10 16 23 29 32 35 38 43 47 48 44 39 35 30 25 19 16 16 18 18 17 18 17 17 19 23 26 28 33 38 43 47 51 54 57 58 55 52 51 50 49 50 53 53 51 51 49 46 47 52 59 60 59 59 59 57 57 59 61 65 67 65 67
6 6 7 6 6 6 6 6 6 3 2 2 2 3 3 3 4 4 4 3 4 10 18 24 29 33 35 39 43 47 49 47 43 36 30 26 20 15 12 12 13 15 17 20 22 24 27 32 36 41 47 52 55 56 58 59 58 55 52 49 48 49 49 50 52 53 52 52 52 49 51 62 72 72 70 71 69 64 62 60 57 57 56 51 53
6 5 6 6 5 5 5 5 4 2 3 3 3 3 3 3 4 4 3 4 8 17 25 30 34 36 38 42 46 49 50 48 43 35 27 22 17 13 12 13 15 21 26 30 32 33 36 41 45 50 57 61 61 61 63 63 60 57 54 49 47 49 49 47 48 51 47 44 45 46 52 64 73 73 72 72 69 65 64 60 52 49 46 40 42
6 5 5 5 4 4 4 3 3 2 3 3 3 3 3 3 3 3 3 6 14 24 30 35 39 40 41 45 50 51 50 48 43 36 26 20 16 13 15 20 25 31 35 37 38 40 45 51 55 59 64 66 67 69 72 72 68 62 57 51 47 47 48 45 48 51 47 39 39 46 54 58 60 63 66 65 61 58 59 57 51 46 44 39 35
4 4 5 5 4 3 3 2 3 3 3 3 3 3 3 3 3 2 4 11 21 30 36 39 43 44 45 49 53 53 51 48 45 37 27 20 17 18 24 31 36 39 40 40 41 44 51 57 62 66 67 69 73 76 75 75 73 67 61 57 53 50 50 53 56 58 53 46 43 50 58 58 55 59 63 61 57 54 55 56 49 41 38 35 35
5 5 5 4 3 3 3 3 3 3 4 3 3 3 3 3 3 3 8 18 27 34 39 42 45 47 49 51 54 53 52 50 47 38 29 22 21 26 34 39 41 43 44 43 43 46 53 59 63 67 71 74 77 75 72 74 76 72 64 60 58 57 58 62 63 59 53 46 44 50 57 58 56 58 63 64 58 55 60 64 55 42 35 33 38
6 6 5 5 4 3 4 4 4 4 4 3 3 3 3 2 4 9 17 26 34 38 41 44 45 47 49 51 52 53 54 54 50 42 33 26 25 32 40 43 45 48 49 48 49 51 56 60 64 70 74 76 75 72 70 72 74 73 64 57 61 66 67 68 64 54 45 43 47 52 54 56 57 58 63 64 55 51 57 57 50 42 34 30 34
5 5 5 5 4 4 5 5 5 5 4 4 4 5 7 10 14 21 29 34 38 41 43 44 46 47 49 50 51 55 58 58 54 46 37 30 27 34 42 45 47 51 53 53 55 59 61 64 69 73 76 76 74 73 72 70 73 74 65 59 66 71 70 67 60 49 45 49 57 57 53 55 59 60 62 58 47 43 44 37 34 35 30 27 29
4 5 6 6 6 7 7 8 9 10 12 15 19 22 25 30 34 38 41 42 44 46 46 47 49 49 48 49 52 57 61 61 58 51 42 35 30 33 40 43 44 49 53 53 56 62 65 67 71 74 78 79 76 74 72 68 66 67 62 60 67 70 65 59 52 49 54 62 67 65 58 58 63 62 58 50 39 34 30 25 27 32 29 25 24
6 5 6 8 11 12 13 16 21 27 32 37 41 43 43 45 46 46 45 43 43 43 43 44 45 47 49 51 54 59 62 62 61 57 49 41 35 33 35 38 40 45 52 56 61 67 69 68 69 72 76 76 73 72 71 64 57 59 61 59 59 59 57 52 50 54 62 67 69 65 58 58 59 52 43 37 32 29 25 23 25 26 25 24 23
14 12 13 18 22 23 24 28 35 42 46 47 47 46 45 43 42 41 38 36 34 32 30 29 30 34 43 51 56 59 63 63 63 61 56 48 41 36 33 34 37 44 52 60 66 70 71 68 67 67 68 67 64 62 63 60 57 62 65 58 50 50 51 51 55 62 66 67 67 60 52 50 45 35 29 27 28 29 28 26 26 24 22 22 23
28 27 30 35 36 35 35 38 43 49 51 50 48 44 40 38 36 34 32 30 28 26 24 22 22 24 32 48 59 61 63 65 65 64 61 54 46 41 36 33 35 40 47 53 59 63 65 64 64 64 62 59 57 58 62 65 65 66 65 57 47 46 49 56 65 70 68 62 55 44 36 33 28 24 23 23 23 23 22 22 23 22 22 23 25
46 45 46 48 47 46 48 53 57 61 61 59 56 50 43 38 34 30 28 27 25 26 25 24 26 28 32 48 63 66 64 66 67 67 64 57 48 41 37 35 36 38 40 44 49 53 56 59 63 63 60 58 62 68 71 70 68 65 62 56 49 52 59 64 66 63 54 43 32 25 23 24 23 23 23 22 21 18 15 15 17 20 23 24 24
55 54 54 56 56 58 63 66 67 69 69 66 65 63 57 50 42 35 32 29 26 29 33 34 38 42 46 57 69 71 66 65 68 68 62 54 44 37 34 35 37 38 39 42 45 47 49 52 52 52 55 64 74 77 73 68 62 60 64 63 59 61 64 59 52 46 38 30 25 23 23 25 26 26 25 23 22 18 13 13 17 20 22 21 20
57 58 60 63 66 68 70 70 69 70 72 71 70 69 67 64 58 52 48 43 36 34 38 45 53 61 67 73 79 77 69 66 68 66 57 46 38 34 34 36 40 41 40 41 42 42 42 42 42 48 61 73 77 74 68 64 59 61 69 71 65 62 59 53 51 51 46 39 31 25 24 26 28 28 26 24 22 18 14 16 20 23 21 18 17
59 61 65 66 67 69 70 71 73 74 75 73 71 69 68 68 67 65 62 58 53 47 46 51 62 74 79 81 82 77 70 68 66 58 47 40 38 40 41 42 44 43 41 42 42 41 41 42 44 55 69 75 73 69 65 63 62 64 69 71 72 73 69 66 70 71 62 49 34 24 25 29 28 26 25 23 21 18 15 18 23 24 21 20 19
64 63 66 66 67 68 70 71 74 75 75 74 73 72 70 69 70 71 69 66 63 59 54 52 59 69 74 74 73 72 70 67 59 49 43 43 46 48 49 49 49 47 46 47 47 45 47 50 53 63 71 70 67 66 62 60 63 67 71 74 80 82 77 76 78 72 58 44 31 25 27 28 26 24 22 21 19 15 14 18 23 23 22 21 21
67 64 65 67 68 69 70 71 71 71 72 72 73 73 72 71 71 73 73 71 67 64 59 56 56 62 67 67 66 66 63 57 49 46 49 51 52 51 51 51 51 50 51 52 52 51 52 55 59 66 71 68 64 64 65 66 69 75 78 79 82 82 79 76 70 57 43 34 27 25 27 26 24 23 20 18 17 14 13 17 20 21 20 19 18
66 66 68 70 70 70 70 71 70 70 69 69 71 72 71 71 71 72 72 72 71 67 64 61 59 61 65 67 69 69 66 59 55 56 57 57 56 58 61 64 65 65 66 68 68 64 59 57 61 68 73 74 73 74 76 76 77 78 78 76 76 76 71 62 51 40 33 28 25 25 26 23 21 21 19 18 16 13 12 17 19 18 17 17 17
70 70 70 70 71 72 72 71 72 72 70 70 70 70 69 70 70 70 70 71 71 70 68 66 62 60 62 64 68 72 73 72 71 72 70 68 67 68 72 76 78 77 75 75 74 70 65 64 69 75 77 78 79 78 78 78 76 75 71 66 63 60 52 43 36 31 28 25 24 24 23 20 19 19 17 16 14 10 11 16 18 16 14 14 15
73 72 70 68 70 74 77 77 77 76 75 73 72 71 70 70 69 69 69 68 67 68 69 69 66 63 62 61 61 62 66 69 71 72 73 73 73 73 74 75 76 75 74 72 71 71 72 73 75 76 75 74 74 72 70 68 65 61 56 49 45 41 36 31 29 26 25 24 23 22 20 18 18 16 14 14 12 9 10 14 17 15 13 13 15
71 73 73 71 71 74 78 79 79 78 76 75 72 70 69 68 68 69 70 69 67 66 66 67 67 64 61 61 61 58 58 61 63 65 67 68 68 69 70 70 70 71 71 71 70 70 70 68 67 66 64 62 60 57 54 52 49 45 40 35 32 30 28 26 26 25 25 24 22 20 19 17 16 15 14 12 10 8 10 14 16 14 12 12 15
65 71 74 75 74 75 77 78 77 76 74 71 68 65 63 61 62 63 65 66 66 66 66 66 65 59 51 50 55 57 56 55 53 54 56 58 58 59 60 61 62 61 60 60 59 58 58 57 56 55 51 48 45 43 41 39 37 34 30 27 26 25 26 26 26 26 25 23 21 20 18 17 15 14 13 11 9 8 9 11 13 13 11 11 13
55 63 69 72 73 74 74 74 72 70 68 65 61 57 53 51 51 52 54 55 56 58 60 61 61 55 46 42 46 50 50 48 43 40 40 41 41 43 47 47 46 46 46 45 45 45 45 45 44 40 36 33 31 29 28 27 27 26 25 25 25 26 26 26 26 25 23 21 19 19 18 17 15 14 12 10 8 7 7 9 11 11 10 9 11
40 48 56 62 66 67 68 67 65 63 61 57 52 46 42 38 37 37 37 37 35 36 38 40 41 40 39 39 42 44 44 43 39 36 35 32 29 29 32 32 34 38 40 41 41 39 34 30 27 25 23 22 21 21 21 22 23 24 25 26 27 27 27 26 26 24 21 19 18 19 19 17 15 13 12 10 8 7 6 7 9 9 9 8 8
24 28 34 39 43 47 49 49 47 44 41 37 32 27 23 19 18 17 17 16 15 15 15 17 18 20 22 26 29 33 34 34 32 31 29 26 20 18 19 20 23 29 32 31 30 28 23 19 19 19 18 19 20 20 21 23 24 25 26 27 27 27 27 26 25 23 21 20 20 20 18 16 14 13 12 9 8 7 7 7 8 9 9 7 5
18 17 17 17 18 19 19 19 18 16 14 13 12 11 10 9 9 9 8 8 8 8 8 8 9 10 11 13 15 18 19 20 20 19 19 16 14 12 13 14 15 17 19 19 18 18 18 18 18 19 20 21 22 23 24 25 26 26 26 26 27 26 25 25 23 22 21 20 20 20 18 16 14 13 11 9 8 7 7 7 8 9 9 7 5
18 17 15 13 12 11 10 9 9 8 8 9 9 9 9 9 9 9 10 10 10 11 11 11 11 10 10 10 10 10 11 11 11 12 12 11 11 12 12 14 15 16 17 18 18 19 20 20 21 22 23 24 24 25 26 26 26 26 25 25 25 24 23 22 21 20 19 19 18 17 16 14 13 12 11 10 9 8 8 7 8 9 9 8 6
17 16 16 15 14 13 12 12 11 11 11 11 11 11 11 10 10 10 11 11 11 12 13 13 14 14 14 14 13 13 12 12 12 12 12 13 14 15 16 17 18 19 19 20 21 22 22 23 24 24 25 26 26 26 26 25 25 25 24 23 22 21 19 19 18 18 18 17 16 15 14 13 12 12 11 10 9 9 8 8 8 9 10 9 8
17 15 15 14 13 13 13 12 13 14 14 13 13 12 11 11 11 11 11 11 12 12 13 14 15 15 15 16 16 15 15 15 15 15 17 18 18 19 20 20 21 22 23 23 24 24 25 26 26 26 26 26 26 25 25 25 24 23 22 20 19 18 17 17 16 16 16 15 15 14 13 12 12 11 11 10 10 9 9 8 8 9 11 12 11
23 18 17 15 12 12 12 11 12 13 14 15 16 15 14 15 15 15 15 15 16 16 16 17 19 22 22 20 20 24 29 31 26 21 20 21 22 22 23 23 24 24 25 26 26 27 28 28 27 27 26 25 25 25 25 24 23 21 20 18 18 17 16 16 16 16 15 15 14 14 13 12 12 12 11 11 10 10 10 9 8 9 11 13 12
35 29 26 23 18 14 12 12 11 11 11 13 15 16 18 20 21 22 21 22 26 32 33 34 37 41 40 37 35 38 42 42 35 27 24 25 25 25 26 26 27 28 28 29 29 28 28 27 27 26 26 25 25 24 23 22 21 20 18 18 18 17 16 16 16 16 16 15 15 15 14 13 13 13 12 12 11 11 10 9 9 9 9 11 11
45 39 37 36 32 25 20 16 15 14 12 11 11 12 14 16 18 21 23 25 32 41 46 48 51 56 57 57 55 53 50 47 43 39 37 34 31 30 29 30 30 30 30 29 28 28 27 27 27 27 27 26 25 23 22 21 21 20 19 18 18 18 17 17 16 16 16 16 16 15 15 15 15 14 13 13 12 11 11 10 10 9 9 10 10
51 47 45 44 42 38 33 28 25 23 21 18 15 13 13 13 14 16 19 22 26 32 36 37 39 43 46 49 50 48 45 43 44 44 43 39 36 34 32 32 31 31 30 30 29 29 29 28 28 27 27 25 24 23 22 21 20 20 20 19 19 19 18 17 16 17 17 17 17 17 17 17 16 15 14 13 12 11 11 10 10 10 10 10 10
52 50 50 49 46 41 36 34 34 33 31 29 25 21 18 17 16 16 17 19 21 24 28 30 31 33 33 35 36 35 34 33 34 35 35 34 33 33 32 32 32 32 32 31 30 29 29 28 27 26 25 24 23 23 21 20 20 20 20 20 19 19 19 18 19 20 20 20 21 20 19 18 16 15 14 13 12 11 11 11 11 10 10 11 11
49 49 51 52 51 45 38 33 33 33 35 37 36 32 28 26 23 22 22 22 22 24 27 30 32 33 33 33 34 34 33 33 33 33 32 32 32 32 32 32 32 31 31 30 29 28 27 25 24 23 22 21 21 21 21 21 20 19 19 19 19 20 21 23 24 24 24 24 24 22 20 18 16 15 13 12 11 12 12 12 12 12 12 12 13
52 51 52 53 54 51 45 38 32 30 32 38 41 41 38 34 31 28 27 27 27 28 29 31 32 34 35 36 35 35 35 34 34 33 33 32 31 31 30 29 28 27 26 25 24 24 23 22 21 20 20 19 19 19 19 19 19 19 20 21 22 25 28 29 29 29 28 27 25 23 20 18 16 14 13 12 12 13 13 14 15 16 16 18 20
56 57 57 56 54 52 48 43 36 31 32 37 42 44 44 42 40 37 35 33 33 33 33 33 34 34 35 36 36 36 36 35 34 33 33 31 30 29 27 26 25 24 23 22 22 21 21 20 20 19 18 18 18 18 18 19 20 21 23 26 28 31 33 33 32 31 29 27 24 21 19 17 15 13 13 13 14 14 16 17 19 21 25 31 35
63 61 59 57 54 50 45 39 35 34 37 42 45 47 47 46 45 44 43 41 40 40 39 39 39 38 38 38 38 37 36 35 34 33 32 31 30 28 26 24 23 22 21 20 20 19 19 19 19 19 18 18 18 19 20 22 23 25 28 31 33 34 35 35 34 31 28 24 22 19 16 15 14 14 15 16 17 17 19 22 27 32 38 44 48
66 63 60 56 53 48 40 36 36 41 46 50 51 51 50 49 48 48 48 46 45 44 43 43 43 42 42 41 39 39 38 36 35 34 32 30 28 26 24 23 21 20 19 19 19 19 19 19 19 20 20 21 22 23 25 27 29 32 34 36 37 37 37 35 32 28 25 22 19 16 14 15 17 19 20 20 19 22 27 32 39 47 54 59 63
69 66 62 57 52 46 41 39 42 48 53 56 57 57 57 56 54 53 52 51 50 49 48 46 45 44 42 40 39 38 36 34 32 30 27 25 23 21 21 20 20 20 20 20 20 21 22 23 23 25 26 26 28 30 32 34 37 38 39 39 39 37 35 32 28 23 20 18 16 15 19 24 26 26 26 27 29 35 43 49 55 61 67 70 70
71 68 64 58 53 48 45 45 47 51 55 57 57 58 57 57 56 56 55 53 51 49 46 44 42 40 38 36 34 31 28 26 25 23 21 19 19 19 20 21 24 26 27 27 27 27 28 28 29 30 31 32 34 37 40 41 41 40 39 38 36 33 30 26 22 19 18 18 19 24 32 40 41 39 40 45 49 53 59 65 68 70 73 74 74
68 65 62 58 54 50 48 47 48 50 50 47 43 42 40 38 38 39 40 40 39 38 37 35 32 30 27 25 23 22 20 19 17 16 16 15 16 18 20 23 28 31 33 33 32 32 31 32 34 35 37 39 41 43 43 43 41 39 37 34 31 27 24 21 20 21 23 26 29 34 42 50 55 58 62 68 69 69 73 77 76 74 79 86 92
Wind_Speed
32 32 31 30 28 27 27 26 25 24 23 22 21 21 21 20 19 19 17 17 16 15 14 13 12 11 10 10 10 10 9 8 8 7 7 6 5 5 5 5 5 5 6 6 5 4 3 2 2 3 3 3 3 2 2 2 2 1 2 2 3 4 5 5 6 7 7 8 8 9 10 11 11 12 12 13 14 15 16 17 17 17 18 19 20
30 31 31 30 29 28 29 28 27 26 24 23 23 23 22 22 21 20 19 18 17 15 14 13 12 12 12 11 11 10 10 9 9 9 8 7 7 7 7 7 7 7 7 7 6 5 4 4 4 4 5 4 4 3 3 3 2 1 0 1 2 3 4 4 5 6 7 8 9 9 10 11 12 12 12 13 14 15 17 19 19 19 19 20 21
29 31 32 31 30 30 30 29 28 27 25 25 24 24 24 23 22 21 20 19 18 16 15 14 14 14 13 12 12 11 11 10 10 10 9 9 9 8 8 8 8 9 9 8 6 6 6 6 5 5 5 5 5 4 4 3 2 2 1 1 2 3 3 4 6 6 7 8 9 10 11 13 14 14 15 15 17 18 19 21 21 21 21 21 22
30 30 31 31 31 30 30 29 28 27 26 26 26 26 25 25 24 23 22 20 19 18 17 16 15 15 14 13 13 13 13 13 12 11 11 11 11 10 10 10 10 11 10 9 8 7 7 6 5 5 6 6 6 5 4 3 3 2 1 1 2 3 3 4 5 6 8 9 11 12 13 15 17 18 19 19 21 22 23 24 24 24 24 24 24
30 30 30 30 29 29 29 29 28 28 28 28 28 28 27 26 25 24 23 21 21 20 19 18 16 15 15 15 14 15 15 14 13 12 12 13 12 12 12 12 13 12 11 10 9 9 8 7 5 5 6 6 5 4 3 2 3 2 1 1 2 3 4 5 6 7 9 10 13 15 16 17 18 19 21 22 23 24 25 26 27 27 26 27 27
30 31 30 29 28 28 28 28 28 28 28 29 30 30 29 28 26 25 25 23 23 21 20 19 17 17 17 17 16 16 15 13 13 13 14 14 14 14 14 14 14 14 13 12 11 10 9 7 6 6 7 6 4 2 1 2 2 2 3 3 3 4 6 7 8 9 10 11 13 15 17 19 19 20 22 23 23 24 25 26 27 28 29 29 29
30 31 30 29 28 27 27 27 28 28 29 31 32 32 30 28 28 27 26 25 24 22 20 20 19 19 18 17 16 15 14 13 14 14 14 15 15 15 16 16 15 14 14 13 12 11 10 8 7 7 7 6 3 2 2 2 2 3 3 4 6 7 9 10 11 12 13 14 15 16 18 19 21 21 23 24 24 25 26 27 26 28 31 32 32
30 30 30 29 28 27 27 27 28 29 30 32 34 33 31 29 29 28 27 26 24 22 21 21 20 20 18 16 15 14 13 13 14 15 15 16 16 17 17 17 16 15 14 13 12 11 11 10 9 8 7 5 4 3 2 1 2 3 4 6 8 10 12 14 15 16 17 17 17 18 19 20 21 22 24 26 27 28 30 31 30 30 33 35 35
29 29 29 29 29 29 28 28 28 29 31 33 33 32 31 30 30 29 28 26 24 23 22 21 20 20 18 16 15 14 14 14 15 15 16 17 17 18 18 17 16 15 14 13 13 12 12 11 10 9 8 6 5 3 2 0 2 3 5 6 8 10 12 14 16 17 18 18 19 20 21 22 22 24 25 27 29 30 33 36 35 35 36 37 36
30 29 29 29 30 30 30 30 30 30 31 33 32 32 31 31 30 29 27 26 25 23 22 21 21 20 18 16 16 15 15 15 15 15 16 17 18 19 18 18 17 15 14 14 14 13 13 12 11 9 8 7 6 4 3 3 3 4 6 8 9 11 13 15 17 18 19 19 20 22 23 23 24 26 27 28 31 34 36 38 38 39 39 38 36
30 29 29 30 31 31 31 31 31 31 32 32 32 32 32 31 30 29 27 26 25 23 22 21 21 20 18 17 17 16 16 15 15 16 17 18 19 19 19 18 17 15 15 14 14 13 13 12 10 9 8 7 6 5 4 5 5 6 9 11 12 14 15 17 18 19 20 21 22 24 26 26 27 29 31 32 35 37 38 39 40 40 41 40 37
30 30 30 31 31 30 31 31 32 32 32 32 32 32 32 31 29 28 27 26 25 23 22 21 21 20 19 18 18 17 17 17 16 17 18 19 20 20 20 19 17 16 15 14 14 13 12 11 10 9 8 7 6 6 7 8 8 8 10 13 15 16 17 18 20 22 23 24 25 27 29 29 30 32 35 37 38 39 39 40 42 42 43 43 40
29 30 31 31 30 30 31 32 32 32 32 32 32 32 31 29 28 28 27 27 25 23 22 22 21 20 20 19 18 18 18 18 17 17 18 20 20 21 20 19 17 17 16 15 15 14 13 11 10 9 9 8 8 9 11 11 11 11 12 14 17 18 19 20 23 25 27 28 29 29 31 33 33 34 38 40 39 40 40 41 43 46 47 47 46
29 31 31 31 31 32 32 32 32 32 32 31 31 31 29 28 28 28 28 26 24 23 23 23 22 21 20 20 19 19 19 19 18 18 19 21 21 21 20 19 18 17 16 16 16 16 14 13 11 11 11 10 11 13 14 14 14 13 14 16 18 20 21 23 26 29 30 31 30 30 32 35 35 35 37 40 41 42 43 44 46 49 49 49 48
31 32 32 32 32 32 32 32 32 31 31 31 30 29 28 28 28 28 27 26 24 24 24 23 22 22 21 21 20 20 21 21 20 19 21 22 22 21 20 19 18 18 17 16 16 16 15 14 12 13 13 13 14 16 17 18 17 16 17 19 21 23 24 26 29 31 31 32 32 33 35 37 38 37 38 42 45 46 47 47 49 50 51 50 48
32 32 32 32 32 32 32 31 31 31 30 29 29 27 27 27 27 27 26 25 25 25 24 23 23 23 23 22 21 22 23 22 21 21 23 23 23 22 21 20 20 19 18 17 17 17 15 14 14 14 14 15 16 18 19 20 21 20 20 21 23 25 27 28 30 31 32 34 36 38 40 40 41 41 41 43 47 48 50 50 49 50 51 50 49
32 31 31 31 31 31 31 30 29 28 27 26 26 26 26 26 26 27 26 26 25 25 25 24 25 25 25 24 23 24 25 24 23 23 24 25 24 23 23 23 22 21 20 20 19 17 16 16 16 16 16 17 19 20 22 23 23 23 22 22 23 25 28 30 31 32 34 36 39 42 43 42 41 42 42 45 47 49 52 52 51 52 53 52 50
30 30 30 31 31 30 29 29 27 26 25 25 25 26 26 27 27 28 28 27 27 27 27 27 26 26 26 26 26 26 26 26 25 25 26 26 25 25 25 25 23 21 21 21 20 18 18 19 19 19 19 20 22 23 24 25 26 25 23 22 22 26 29 31 32 33 35 37 38 40 41 41 41 41 42 44 46 48 50 51 50 53 55 54 53
28 28 29 29 28 27 27 27 26 25 25 25 25 26 26 27 28 28 28 29 29 29 29 28 28 27 27 28 28 28 27 27 27 26 26 27 26 26 26 25 23 21 21 22 21 20 20 21 22 23 23 24 25 25 26 28 28 27 25 22 23 27 31 31 32 35 37 38 38 39 40 39 40 40 40 41 43 46 49 50 50 52 55 55 55
27 27 28 27 26 25 25 26 26 25 24 24 24 25 25 26 26 27 27 29 29 29 29 29 29 29 29 30 30 29 28 29 28 27 27 27 27 27 27 26 24 23 24 24 23 23 23 23 24 25 26 26 27 27 29 30 30 29 27 25 26 29 32 33 35 38 39 40 40 40 39 39 39 39 39 39 41 44 47 49 50 52 54 55 55
28 27 27 26 25 26 26 26 25 25 24 23 22 22 22 23 23 24 25 27 28 28 29 29 29 30 31 32 31 29 29 29 29 28 27 28 28 28 27 26 25 25 26 25 25 24 24 25 26 27 28 28 28 30 31 32 32 32 31 28 28 32 36 37 38 40 40 40 40 39 39 40 41 41 41 41 41 43 45 47 49 51 54 55 56
29 28 27 26 26 26 26 26 25 24 24 23 21 21 21 21 21 21 22 23 24 26 27 27 28 29 31 32 31 30 29 29 29 29 28 28 28 28 27 27 27 27 26 26 26 26 26 26 27 28 29 29 30 31 33 34 34 35 35 33 31 34 40 40 40 41 42 42 42 42 42 44 45 45 45 44 45 46 47 48 49 50 52 54 54
32 31 30 28 28 29 28 27 27 27 26 25 24 23 22 21 21 20 20 19 20 21 24 25 26 27 28 29 30 29 29 29 28 28 28 28 28 27 26 27 27 26 25 25 26 26 26 27 27 28 29 30 31 33 34 35 36 37 39 39 36 36 40 42 42 44 45 46 47 46 45 47 48 47 47 47 47 48 50 51 51 51 50 50 50
35 34 33 32 31 31 31 30 30 30 29 29 28 27 26 25 23 22 21 20 18 18 20 23 24 24 25 26 28 29 29 29 28 28 28 28 28 27 26 26 26 26 25 25 25 26 26 27 28 29 30 32 33 34 35 37 38 39 41 43 43 42 43 45 46 48 49 50 50 49 48 49 50 49 49 49 49 50 51 51 50 50 50 49 48
38 37 36 34 33 32 32 31 31 30 30 30 30 30 29 28 27 26 24 23 20 18 18 20 23 24 24 24 26 28 29 29 28 27 27 26 26 25 25 25 26 26 25 25 26 27 28 29 30 31 32 33 34 35 36 37 39 41 42 45 46 46 47 48 49 51 52 52 52 50 50 50 51 50 50 51 51 51 51 51 49 48 48 48 47
41 40 39 37 36 35 33 33 32 31 31 31 32 32 31 30 30 29 27 26 24 22 21 19 20 22 24 25 26 27 28 28 27 26 25 24 24 24 23 24 25 25 25 26 28 29 30 31 32 33 34 35 36 36 38 39 41 43 45 47 48 49 49 50 51 53 54 54 52 51 51 51 51 51 52 53 53 53 52 51 49 47 47 47 47
44 44 43 42 41 39 38 37 37 36 36 35 35 34 33 33 32 31 31 30 28 27 26 23 21 21 22 24 25 26 26 25 24 24 24 24 24 24 24 25 26 27 28 29 31 33 34 34 35 36 37 38 39 39 41 42 44 45 47 48 50 51 51 52 53 54 55 54 53 53 52 52 51 52 53 53 53 53 52 51 50 48 47 47 47
49 49 49 48 46 45 44 42 41 41 41 40 39 39 38 37 36 35 34 34 33 32 31 29 27 25 24 25 25 25 25 25 25 25 25 25 26 27 27 28 29 30 31 33 34 36 37 37 37 39 40 40 41 42 43 45 46 47 48 49 51 52 53 54 55 55 55 55 54 54 53 53 53 53 54 54 54 54 53 52 52 51 50 49 47
49 51 51 49 48 48 47 45 44 44 44 44 44 44 43 41 40 39 38 37 36 35 34 34 32 31 30 28 28 27 27 28 28 29 29 29 30 30 31 32 33 34 35 36 37 37 38 39 40 41 42 42 43 44 45 46 47 48 49 51 52 53 54 55 55 55 55 55 55 55 55 55 55 55 56 56 55 55 54 53 53 52 52 51 49
46 48 49 47 46 47 47 46 45 46 47 48 48 48 47 46 45 43 42 41 40 38 37 37 37 36 34 33 32 31 31 32 32 33 33 33 33 33 34 35 35 36 36 37 37 38 39 40 41 42 43 44 44 45 47 48 49 50 51 52 53 54 55 55 55 56 56 56 56 56 56 57 56 56 57 57 56 55 53 53 53 53 52 52 50
44 45 46 46 46 46 46 46 47 48 49 50 50 50 49 49 48 46 45 45 44 43 41 40 41 40 38 36 35 35 35 35 35 35 35 35 36 36 36 37 37 37 37 38 39 40 40 42 43 44 45 46 47 48 49 50 50 51 52 53 54 54 55 55 56 56 57 57 57 57 57 58 58 58 58 57 57 56 54 54 54 54 53 53 52
44 45 46 46 47 47 47 48 49 49 50 50 50 50 49 49 48 48 47 47 47 46 45 45 44 43 41 39 38 38 38 38 37 37 37 38 38 38 38 38 39 39 40 41 42 43 44 45 46 46 47 48 48 49 50 50 51 52 53 53 54 54 55 56 56 57 58 58 58 58 58 59 59 59 58 58 58 57 56 55 55 54 54 54 53
43 45 46 47 48 48 49 49 50 50 51 51 50 50 49 49 48 48 48 48 48 47 47 46 45 44 43 42 41 40 40 40 40 40 40 40 40 40 40 40 41 42 43 44 45 45 46 47 47 47 47 48 49 49 50 50 51 52 52 53 54 55 56 56 57 58 59 59 59 59 59 60 60 59 59 59 59 58 57 56 56 55 55 55 53
42 43 45 46 47 48 48 49 49 49 49 49 49 48 47 46 45 45 45 45 44 44 43 43 42 43 43 42 42 42 42 42 42 42 43 42 42 41 41 42 42 43 45 45 46 46 47 46 46 47 47 48 48 49 50 50 51 52 53 54 54 55 56 56 57 58 60 60 60 60 61 61 61 61 60 59 59 59 58 57 56 56 56 56 55
39 40 41 42 44 44 45 45 45 45 45 44 44 43 42 41 39 38 38 38 38 38 38 38 38 39 40 41 41 42 42 43 43 43 43 44 43 42 41 41 42 43 44 44 45 45 46 46 47 47 48 49 49 50 51 51 52 53 54 54 55 55 56 57 58 59 60 60 60 61 62 62 62 62 61 60 60 59 58 58 57 57 57 57 56
37 37 37 37 38 39 40 40 40 41 41 40 40 40 39 38 37 36 36 35 35 35 35 35 35 36 37 39 40 41 41 42 42 43 43 43 43 42 41 41 42 42 43 44 44 45 46 47 48 48 49 50 51 51 52 53 53 54 54 55 56 57 58 59 60 61 61 62 62 63 64 64 64 63 62 61 60 60 59 58 58 58 58 58 57
37 37 36 35 35 36 37 37 38 38 39 39 39 40 39 39 39 38 38 37 37 36 36 36 36 37 38 39 39 40 41 41 41 42 43 42 42 42 42 42 43 44 44 45 45 46 47 48 49 50 50 51 52 52 53 53 54 55 56 57 58 59 60 61 61 62 63 63 64 64 65 66 65 65 64 62 61 60 59 58 58 58 58 57 56
37 38 38 37 36 35 35 36 36 37 38 39 40 40 41 41 41 40 39 39 38 38 38 38 39 40 40 40 41 42 43 43 42 42 42 42 42 43 43 43 44 45 46 46 47 48 49 50 50 51 52 52 53 53 54 54 56 57 58 59 60 61 61 62 63 63 64 65 65 66 67 67 67 66 65 64 62 60 59 58 58 57 56 55 53
36 37 38 39 39 38 37 36 36 36 37 38 39 40 41 41 41 40 39 39 40 41 41 42 42 41 41 41 43 43 42 41 40 40 41 42 43 44 45 45 46 46 47 47 48 49 50 51 51 52 52 53 53 54 55 56 58 59 60 61 62 62 63 64 64 65 66 66 67 67 68 68 68 67 66 65 63 61 60 59 58 58 56 54 52
35 35 35 37 39 40 40 39 38 38 38 38 39 39 40 41 41 41 40 40 42 43 42 41 42 41 40 41 43 42 40 39 39 40 41 43 44 45 46 47 48 48 48 49 50 50 51 52 52 53 54 54 55 56 58 59 60 61 62 63 63 64 65 65 66 66 67 68 68 68 68 68 68 67 66 65 63 62 62 61 60 59 57 55 52
34 34 33 33 35 38 40 40 40 39 40 40 40 40 41 41 41 42 42 42 44 44 41 40 40 40 39 39 41 41 40 40 41 41 42 43 45 47 48 49 49 50 50 51 51 52 52 53 54 55 56 57 58 59 60 61 61 62 63 64 65 65 66 67 67 68 68 68 68 68 68 68 67 67 66 65 65 64 64 64 62 60 58 56 53
39 37 35 34 34 35 37 39 40 40 40 40 41 41 42 42 43 43 43 45 47 47 45 43 43 42 41 41 41 41 41 41 42 42 43 45 47 48 50 50 51 51 52 52 53 54 54 55 56 57 58 59 60 61 62 62 63 64 65 65 66 67 67 68 68 69 69 69 68 68 68 68 67 67 66 66 66 66 66 65 63 61 58 56 53
45 44 42 39 37 36 36 37 38 40 41 41 41 42 42 43 44 45 45 46 48 49 48 47 46 45 44 44 44 45 45 45 45 46 47 48 49 50 51 51 52 53 53 54 55 55 56 57 58 59 60 61 62 62 63 64 65 66 66 67 67 68 68 69 69 69 69 69 68 68 68 68 68 68 68 68 68 68 67 66 64 61 59 56 54
50 50 48 46 43 41 39 38 38 39 42 43 43 43 44 45 45 46 47 47 48 49 49 49 48 48 47 47 47 47 47 47 48 48 49 50 50 51 52 52 53 54 55 56 57 58 59 59 60 61 62 63 64 64 65 66 66 67 68 68 68 68 69 69 69 68 68 68 69 69 69 68 69 69 70 70 70 68 67 65 63 60 58 56 54
53 52 51 50 48 47 45 43 41 41 42 44 45 45 46 46 47 48 49 49 50 50 51 51 50 50 50 50 49 49 49 49 50 50 51 51 52 53 53 54 55 56 57 58 59 60 61 62 63 64 65 65 66 66 67 67 68 68 68 68 68 68 68 68 68 68 69 69 69 69 69 70 71 71 71 71 69 67 65 63 60 58 57 55 53
54 53 52 51 50 49 49 48 47 45 44 45 47 47 47 47 48 48 49 50 51 51 52 52 52 52 52 52 52 52 52 52 52 53 53 54 54 55 56 57 58 59 60 61 62 63 64 64 65 66 67 67 68 68 68 68 68 68 68 68 68 68 68 68 69 69 70 70 70 70 71 72 72 72 71 69 67 65 62 60 58 56 54 51 49
53 53 52 52 51 51 49 48 48 47 47 47 48 49 49 49 49 49 50 50 51 51 52 52 53 54 54 54 54 55 55 55 56 56 57 57 58 58 59 60 61 62 63 64 65 65 66 66 67 67 68 68 69 69 68 68 68 69 69 69 69 69 69 69 69 70 70 70 71 72 73 73 72 70 68 66 65 62 60 57 55 52 49 46 44
54 53 53 52 51 50 49 48 47 47 47 48 48 49 50 51 51 51 51 52 52 53 53 54 54 55 56 56 57 57 58 58 59 60 60 61 62 62 63 64 65 65 66 67 67 67 68 68 68 68 69 69 69 69 69 69 69 69 69 70 70 70 69 69 70 70 71 72 73 73 72 71 69 67 66 64 62 60 56 53 50 47 44 42 40
54 53 52 52 50 49 48 47 45 45 46 47 48 49 50 51 52 52 53 53 54 55 55 56 57 57 58 59 60 60 61 62 62 63 64 64 65 65 66 67 67 68 68 68 68 68 68 68 68 68 69 69 69 69 69 69 70 70 70 70 70 70 70 70 71 72 73 73 72 71 68 66 64 63 62 60 58 55 51 48 46 43 40 38 37
56 55 53 52 51 49 47 45 44 43 43 44 46 48 50 51 52 53 54 56 57 58 58 59 60 60 61 62 63 63 64 65 65 66 66 67 67 67 68 68 68 68 68 68 68 68 68 68 68 69 69 69 69 69 69 70 70 70 70 70 70 71 71 72 73 72 71 69 67 65 62 59 58 58 57 55 53 51 48 45 41 38 36 36 36
56 56 55 54 52 51 49 47 46 45 45 46 48 50 52 53 55 57 58 59 61 61 62 63 63 64 65 65 66 66 67 68 68 69 69 69 69 69 69 69 69 69 69 69 69 69 69 69 69 69 69 69 69 69 69 69 69 70 70 71 72 72 72 71 70 68 66 64 62 60 57 55 54 54 53 51 50 47 44 40 36 35 35 36 36
Wind_Direction
201 200 198 196 194 192 194 198 202 204 203 199 198 202 202 198 195 192 189 189 188 190 196 203 213 224 231 238 245 250 251 248 246 244 243 244 243 241 241 240 240 242 245 247 251 258 266 274 284 285 283 285 295 313 322 315 320 0 27 29 32 32 29 23 18 19 18 14 10 6 1 357 356 354 350 347 345 343 341 343 346 347 347 346 345
204 204 203 200 198 195 196 198 202 204 204 201 199 201 202 201 199 196 194 195 196 200 208 216 226 236 242 246 248 248 248 245 243 243 243 243 241 240 241 242 243 243 245 248 250 254 262 270 274 276 272 271 273 273 277 281 276 249 267 12 22 26 23 15 11 12 11 8 5 2 355 351 351 350 346 344 344 342 339 340 344 347 347 344 342
205 206 206 203 201 200 199 200 202 204 204 202 201 202 203 203 202 200 200 201 203 208 217 224 232 240 244 244 245 246 247 248 246 246 247 244 241 238 237 240 242 244 247 249 252 255 263 271 273 273 272 272 268 257 248 246 238 231 244 309 358 13 8 1 5 5 2 0 358 356 351 346 345 345 343 343 342 341 338 338 343 346 344 342 341
206 207 206 206 205 203 203 203 204 204 205 204 203 202 204 205 205 204 205 207 210 216 222 227 232 236 239 240 241 245 248 248 247 247 248 247 244 239 235 235 236 241 246 249 252 257 263 266 265 262 264 266 261 250 239 222 202 195 216 300 4 17 6 4 10 7 359 352 348 348 347 344 342 341 339 341 341 341 339 339 343 345 342 341 340
207 207 207 207 207 206 206 206 206 206 205 205 204 204 205 206 206 207 209 210 215 220 224 227 228 229 233 237 241 246 250 251 250 249 248 249 248 243 237 234 233 236 241 244 250 256 259 257 248 245 252 256 250 240 225 190 160 152 137 82 51 39 22 17 16 7 357 348 341 341 342 343 343 338 336 339 340 340 340 340 343 343 339 338 338
206 207 208 208 208 209 209 209 209 208 207 206 205 206 206 206 206 206 209 212 216 220 223 225 224 226 232 239 244 248 249 250 251 252 252 253 251 246 240 236 234 234 236 240 245 248 249 245 235 233 240 244 243 231 193 141 122 105 76 55 38 23 7 3 6 0 352 348 341 337 338 342 343 338 336 339 341 339 337 337 339 338 334 333 333
206 206 207 208 210 211 211 211 211 210 208 207 206 207 206 205 205 206 209 213 216 219 221 222 223 228 235 241 246 248 247 248 252 254 257 256 253 249 243 239 236 235 236 236 237 236 234 232 227 224 225 226 217 188 156 116 89 64 36 9 359 359 351 349 355 352 349 349 345 341 341 342 341 338 335 338 341 338 334 335 337 332 328 328 330
206 206 206 207 209 211 211 212 212 211 209 207 207 207 205 204 205 206 209 212 215 216 219 222 225 231 236 240 244 248 249 249 252 255 256 255 253 248 243 239 236 235 233 229 225 221 217 215 213 211 210 206 193 176 157 99 47 16 359 349 348 349 346 345 346 345 345 346 343 342 343 342 339 335 334 335 336 334 332 335 336 331 327 328 330
205 206 206 206 208 210 210 210 210 210 208 207 207 207 205 204 205 207 209 211 213 214 218 223 229 232 235 237 240 245 248 251 254 256 255 253 250 247 243 239 235 229 222 215 209 207 206 203 201 201 200 200 204 207 210 285 330 330 332 336 339 340 339 337 337 337 338 340 339 340 341 341 335 330 330 330 328 328 330 333 335 332 329 331 332
204 204 205 207 209 210 210 208 206 206 206 207 208 207 206 206 206 208 209 211 212 214 218 224 228 231 233 235 238 242 245 250 254 255 253 251 249 246 240 234 228 221 212 206 205 205 205 204 203 204 207 211 220 230 242 265 291 310 320 326 330 332 332 331 330 330 332 336 339 338 339 337 329 323 323 320 318 323 328 330 334 333 331 333 336
202 203 204 207 209 210 209 206 202 202 203 206 208 208 208 208 208 209 210 211 213 216 220 223 227 230 232 235 239 242 246 251 254 253 251 249 247 243 236 229 223 217 212 210 211 212 212 211 211 215 222 232 243 257 270 283 298 313 321 324 326 328 328 328 327 327 331 337 339 337 335 332 325 320 321 319 319 324 327 329 331 331 329 332 333
200 202 204 206 208 208 207 203 199 200 203 206 209 210 210 210 209 209 210 212 215 217 220 223 226 229 233 236 239 242 246 251 253 252 248 246 244 239 234 229 224 220 219 218 219 220 219 218 221 226 233 245 260 274 283 290 299 311 319 321 322 323 324 326 326 326 331 336 338 336 331 328 327 326 324 324 326 328 328 328 329 328 328 328 328
199 201 203 204 204 203 202 200 200 202 205 209 211 212 212 212 211 211 211 213 216 217 219 222 225 229 234 238 241 244 248 252 252 249 246 243 240 237 233 231 228 225 225 225 224 224 223 223 227 234 242 252 266 276 282 288 296 306 314 315 315 317 320 323 324 324 329 332 333 332 326 323 328 330 326 325 326 327 326 327 327 327 326 325 324
198 201 202 201 201 200 200 200 202 205 208 211 213 214 214 214 212 212 213 215 217 218 221 223 225 229 234 238 242 246 250 252 251 249 246 242 239 237 235 233 232 229 227 225 226 227 228 229 234 242 251 261 271 277 283 290 296 305 311 310 310 313 318 321 321 323 326 327 327 328 324 323 328 330 326 323 324 325 325 324 325 324 323 322 323
198 200 201 200 200 201 202 203 205 208 210 212 214 214 214 213 213 213 215 217 218 219 222 224 227 230 234 238 242 247 250 251 250 249 246 243 240 238 236 235 234 231 227 226 227 229 231 235 240 246 256 265 273 280 286 291 297 303 307 308 309 312 316 318 319 321 323 323 324 325 325 325 327 329 327 324 325 326 324 321 321 320 318 319 320
199 200 200 201 202 203 204 205 207 209 211 212 213 214 213 213 214 216 218 219 220 221 223 225 228 232 236 239 242 246 249 249 249 248 246 243 240 236 234 234 233 230 229 228 229 232 236 240 243 247 255 265 273 279 284 289 293 298 302 305 307 310 314 314 315 317 319 321 323 325 326 327 327 327 327 324 324 324 320 319 320 317 315 316 317
201 201 201 202 203 204 205 206 207 208 209 211 212 213 214 215 216 218 219 220 220 222 223 225 228 232 236 240 242 243 246 247 247 246 246 245 241 236 234 235 234 231 231 233 234 236 241 246 248 250 255 262 269 274 279 284 288 292 297 302 305 309 310 310 311 314 317 321 324 324 324 324 323 323 323 321 322 320 318 320 320 314 312 313 314
203 202 201 203 204 204 204 204 204 204 206 209 211 214 215 216 218 219 220 221 221 222 224 225 227 231 236 241 243 243 246 249 249 248 248 247 245 241 240 240 239 235 234 236 237 239 244 249 252 253 254 258 264 269 275 280 284 288 293 302 309 309 306 307 311 314 317 320 322 319 317 317 317 318 318 318 319 318 316 318 317 312 311 312 311
201 200 200 202 203 202 201 200 201 203 207 210 212 216 218 220 223 224 225 226 226 227 228 228 229 231 235 240 244 245 247 250 252 252 251 251 249 247 245 245 243 238 235 236 237 240 244 249 253 254 256 258 263 268 273 278 282 286 292 303 309 306 303 307 313 315 315 315 313 310 310 310 311 312 315 316 317 315 313 313 313 311 311 311 309
197 197 197 199 199 197 196 197 200 203 207 211 214 218 221 224 227 229 231 232 233 233 234 233 233 233 234 238 242 244 246 250 254 254 254 254 253 251 250 249 246 241 238 238 239 241 244 249 252 255 258 261 266 271 275 279 283 288 294 301 305 303 304 309 312 310 308 308 307 306 307 307 309 312 316 317 316 314 313 313 313 312 311 310 309
194 195 196 198 197 196 196 198 201 203 206 210 215 220 224 227 228 231 233 235 236 237 237 236 235 235 235 237 239 242 244 248 253 256 257 257 257 255 254 253 250 246 243 243 244 245 247 250 253 256 260 265 270 274 278 282 286 291 295 299 304 305 306 306 305 302 302 303 305 307 309 310 314 317 318 317 317 317 317 316 315 314 313 311 310
194 196 199 200 200 200 202 202 203 206 209 212 216 221 227 230 230 231 234 237 238 239 238 238 237 237 238 238 237 239 242 245 250 255 258 259 259 259 259 257 254 252 248 247 248 249 250 253 256 259 263 267 272 275 280 285 289 293 295 297 301 302 300 299 300 300 302 306 309 311 312 314 316 317 317 318 320 322 321 319 318 317 315 313 311
196 197 199 201 203 203 204 206 207 210 213 216 220 223 227 232 235 237 241 243 245 245 242 241 241 241 241 241 239 239 240 243 247 253 257 260 261 261 260 258 257 255 251 249 251 253 256 259 261 263 266 269 272 276 281 286 289 293 294 295 296 296 295 297 301 302 304 308 310 312 313 314 315 316 317 320 323 324 323 321 319 318 317 316 313
198 198 199 202 207 207 207 209 213 215 217 219 222 226 228 230 233 238 243 247 252 253 247 242 242 242 243 242 241 240 241 243 247 251 255 259 261 261 261 259 258 258 256 254 256 258 261 263 265 266 267 269 273 276 281 286 289 292 293 294 295 296 297 299 301 302 303 306 309 311 313 313 314 316 319 321 324 326 324 321 319 319 318 317 315
202 201 201 204 209 211 211 213 216 218 221 224 226 230 232 233 234 235 237 242 248 254 253 247 241 239 240 240 241 241 243 245 248 251 254 256 258 259 259 258 258 258 258 259 260 262 264 266 267 267 268 270 274 278 282 286 289 290 291 292 294 296 298 299 300 301 303 306 308 310 312 312 314 318 320 323 325 326 323 320 319 320 318 317 317
204 203 203 206 210 213 214 215 217 220 223 227 229 232 235 237 239 238 237 238 242 247 252 252 245 239 237 238 240 242 245 246 248 249 251 253 255 256 257 257 258 259 260 261 262 264 266 267 268 269 270 272 276 280 283 285 287 288 290 292 294 296 297 298 299 301 303 306 308 310 311 312 315 319 321 323 325 325 322 320 320 321 319 317 318
206 206 206 208 210 212 214 216 218 221 223 226 230 232 235 238 240 241 241 241 240 242 245 248 246 242 239 239 240 241 244 246 248 250 253 255 257 258 258 258 259 260 261 262 263 265 267 269 270 270 272 274 277 280 282 284 286 288 290 292 293 294 295 297 299 301 304 306 307 309 311 314 317 320 322 323 325 324 321 320 320 321 320 319 320
209 210 213 214 212 212 213 215 218 221 223 226 228 231 233 236 238 240 242 243 243 242 242 243 243 242 242 242 242 243 244 246 248 251 254 255 256 256 256 257 258 259 260 261 263 265 267 268 270 272 274 276 278 280 282 284 286 288 289 291 292 293 295 298 300 302 304 306 308 310 313 315 318 321 322 323 324 323 322 321 320 320 321 321 321
215 217 220 221 217 213 213 215 219 222 225 227 229 230 232 234 235 237 239 242 243 244 244 244 243 243 243 242 242 242 243 244 246 247 249 250 251 253 254 255 256 258 260 261 263 266 268 270 271 273 275 277 279 281 282 283 285 287 289 290 292 294 296 298 300 302 304 307 309 312 314 316 319 320 321 322 322 322 321 321 320 320 322 323 323
222 222 224 224 220 217 217 219 222 225 228 229 230 231 232 234 235 236 238 240 242 244 246 246 247 247 246 245 244 243 242 242 243 245 246 248 250 252 253 255 256 258 260 262 264 266 267 269 271 273 276 278 279 280 282 284 285 287 289 291 293 295 297 299 301 303 305 308 310 312 314 316 318 319 320 321 321 321 321 319 318 319 321 323 323
226 226 226 227 226 225 225 225 226 228 231 233 234 235 236 237 238 239 239 240 241 242 244 247 249 250 249 247 246 245 244 244 245 246 248 250 252 253 255 256 258 261 263 264 266 267 268 270 272 275 277 278 280 281 283 285 286 288 290 292 294 296 298 300 302 304 305 307 309 311 313 315 316 318 319 320 320 320 319 318 318 319 321 322 322
227 228 229 230 231 232 233 232 232 233 235 237 238 240 242 243 243 243 244 244 244 244 244 246 248 250 251 250 249 249 248 249 250 252 253 255 256 257 258 260 262 265 267 268 269 270 272 273 274 276 278 279 281 283 284 286 287 289 291 293 294 296 298 300 302 303 305 306 309 311 313 314 315 317 318 319 319 319 318 317 317 318 320 321 321
227 228 229 230 232 234 235 236 237 238 239 241 243 245 246 247 247 246 246 246 247 247 247 247 248 249 250 252 253 253 254 254 256 258 259 260 261 262 262 263 264 266 268 270 272 273 274 275 276 278 279 281 282 284 285 286 288 289 291 292 294 296 298 299 301 303 304 306 309 310 311 312 314 316 317 318 318 318 317 317 317 318 318 319 319
226 228 229 230 231 233 235 237 239 241 242 244 245 247 247 247 246 245 245 245 246 247 247 247 247 248 249 251 253 254 255 257 258 260 261 262 263 263 263 263 263 265 267 269 271 273 274 276 278 279 280 282 283 284 286 287 288 290 291 292 294 295 297 299 300 302 304 306 308 309 310 311 313 315 316 317 317 317 317 317 317 317 317 317 317
226 227 229 230 231 232 234 236 238 239 241 243 244 244 244 243 242 241 241 241 242 243 244 244 245 246 248 250 251 253 254 256 257 259 260 261 262 262 263 264 265 266 267 269 271 273 275 277 278 280 281 282 284 285 286 287 288 290 291 292 294 295 297 299 300 302 304 306 308 309 309 310 312 314 316 317 317 317 317 318 318 317 317 317 316
225 226 227 228 229 230 231 233 235 237 238 239 240 241 241 240 240 240 240 240 241 242 243 243 244 245 246 247 249 250 252 253 255 257 258 259 261 262 263 265 266 267 269 270 272 274 276 278 279 280 282 283 284 285 286 287 288 290 291 292 294 296 298 299 301 303 304 306 307 307 308 310 312 314 316 317 317 317 318 318 318 318 317 317 317
227 226 226 227 229 231 232 232 234 236 238 239 241 241 242 242 242 243 243 243 243 243 244 244 244 245 245 246 247 249 250 251 253 255 257 259 261 262 264 265 266 268 270 272 274 276 277 279 280 281 282 283 284 285 286 287 289 290 292 294 296 297 298 300 301 303 304 305 306 307 308 309 311 313 315 316 317 318 318 318 319 318 317 317 318
231 230 229 230 230 232 234 234 235 236 238 240 242 243 244 245 246 246 247 247 247 246 246 246 246 246 246 247 248 249 249 249 250 252 256 259 262 264 266 267 268 269 272 273 275 277 278 279 280 281 282 283 284 285 287 288 290 292 293 295 296 297 299 300 301 302 303 304 305 306 308 309 311 313 314 315 317 317 318 318 318 318 317 316 317
236 235 235 235 234 235 236 237 238 238 239 240 242 243 245 246 247 248 250 251 252 251 249 248 248 248 249 251 251 251 251 251 252 255 258 261 263 266 268 269 270 272 273 274 276 277 278 278 279 280 282 283 285 286 288 289 291 293 294 296 297 298 298 299 300 301 302 304 305 306 308 309 311 312 314 315 316 317 317 318 318 317 315 315 315
239 238 239 240 240 239 239 240 241 242 241 242 243 244 245 246 248 249 249 251 252 253 253 253 254 254 254 255 257 257 258 260 261 263 264 266 268 269 271 272 272 273 274 274 275 276 277 278 279 281 282 284 286 287 289 291 292 294 295 296 296 297 298 299 300 301 302 304 305 306 308 309 310 312 313 314 315 316 316 316 316 316 314 313 313
239 239 241 244 246 246 245 244 245 246 246 246 246 246 247 248 249 250 251 252 253 253 254 255 256 257 257 257 258 260 263 266 267 267 267 269 271 272 272 272 272 273 273 274 275 276 278 279 281 282 284 285 287 289 290 291 292 293 294 295 296 297 298 299 300 301 302 304 305 306 308 309 311 312 312 313 314 315 315 315 315 314 313 313 312
241 242 244 247 250 252 252 250 250 250 250 250 250 250 251 251 251 252 253 253 255 256 256 256 257 257 258 259 261 263 266 268 268 267 266 267 268 269 269 270 271 272 274 275 276 278 279 281 282 284 285 287 288 289 290 291 292 292 293 294 295 297 298 299 300 301 303 304 305 307 308 309 310 311 312 313 313 313 313 313 313 313 312 312 311
247 248 249 250 252 254 256 257 257 256 255 255 255 254 254 254 255 255 255 255 257 259 261 261 261 261 261 261 262 264 265 266 266 266 266 266 267 268 270 271 272 274 275 276 278 279 281 282 283 284 285 286 287 288 289 290 291 292 293 294 295 297 298 299 300 302 303 305 306 307 308 309 309 310 311 312 312 311 311 311 311 310 310 310 309
251 251 251 252 255 256 258 262 265 263 260 258 258 257 257 256 257 258 258 259 260 261 263 264 264 265 264 264 264 265 266 266 267 268 269 269 270 271 272 274 275 276 277 279 280 281 282 283 284 284 285 286 287 288 289 290 291 292 293 294 295 297 298 300 302 303 304 305 306 306 307 308 309 309 310 310 310 309 309 309 309 309 308 308 307
251 251 250 252 255 258 261 266 271 270 266 261 259 259 259 258 258 258 259 260 261 262 263 265 266 267 268 268 268 268 269 269 270 270 271 272 273 274 275 276 277 278 279 280 281 281 282 283 284 284 285 286 287 288 288 289 290 292 293 294 296 298 300 301 302 303 304 304 305 305 306 307 308 308 308 308 308 307 307 307 307 307 307 307 306
250 250 250 252 255 259 262 267 271 271 267 262 260 259 260 260 259 259 260 261 262 263 264 265 266 267 269 270 271 271 272 272 272 272 273 274 274 275 276 277 278 279 279 280 280 281 282 282 283 283 284 285 286 287 288 289 291 292 294 296 297 299 300 301 301 302 303 303 304 305 306 307 307 307 306 305 305 305 305 305 305 306 306 306 304
249 250 251 253 257 260 264 267 269 267 263 259 258 258 259 259 259 260 260 261 262 263 264 266 267 268 269 270 271 271 272 273 274 274 275 275 276 277 277 278 278 278 279 279 280 280 281 281 282 283 284 285 286 287 289 291 293 294 295 296 297 298 299 300 300 301 302 303 304 305 305 305 304 304 303 303 303 303 303 304 304 305 304 303 301
252 253 254 256 258 261 264 266 265 262 258 256 256 256 257 258 259 259 260 261 262 263 264 266 267 268 269 270 271 271 272 273 274 275 275 276 276 277 277 277 277 278 278 279 279 280 281 282 283 284 285 287 288 290 291 292 293 294 295 296 297 298 299 300 300 301 302 303 303 303 303 302 302 301 301 301 301 301 302 302 303 302 301 300 299
255 256 257 259 261 262 263 263 260 257 255 255 256 256 257 258 258 259 260 261 262 263 264 265 267 268 269 270 271 271 272 273 274 274 275 275 276 276 276 276 277 277 278 278 279 280 281 283 284 285 287 288 289 291 291 292 293 294 295 296 297 298 299 300 300 301 301 300 300 300 300 299 299 298 299 299 299 300 300 300 300 299 299 298 299
256 256 257 259 260 259 259 257 255 253 254 256 258 259 260 260 261 262 262 263 264 265 266 266 267 268 269 270 271 272 273 273 274 274 274 274 275 275 275 276 277 277 278 279 280 281 283 284 286 287 288 289 289 290 291 292 293 294 295 296 297 297 298 298 298 298 298 297 297 297 298 297 296 296 297 297 297 297 298 297 297 298 299 300 299
257 256 256 256 256 255 255 253 252 252 255 258 262 264 266 266 266 266 265 265 266 267 267 268 268 269 270 271 271 271 272 272 273 273 273 274 274 275 276 277 278 279 280 281 282 283 284 285 286 287 288 289 290 291 292 293 294 295 295 296 296 296 296 296 296 295 295 295 295 295 295 294 294 294 294 294 293 293 293 293 294 297 299 298 295